RH
78 76 75 72 69 65 60 54 49 44 40 37 33 31 29 27 26 25 24 23 22 20 19 18 17 16 15 14 13 12 12 12 11 11 11 11 11 11 11 11 12 13 14 15 15 15 15 14 14 13 13 13 13 13 12 12 13 13 14 14 14 14 15 14 13 12 11 10 10 10 12 13 14 16 19 25 33 45 58 67 72 73 78 77 73 75 71 65
80 78 75 71 68 63 58 51 46 41 37 33 30 28 26 24 23 22 21 20 19 19 18 17 16 15 14 13 12 11 11 11 11 10 10 10 10 10 10 10 11 11 12 13 13 14 15 14 14 13 13 12 12 12 12 12 12 12 12 13 14 14 14 14 14 14 14 12 11 11 10 10 11 12 12 14 14 18 24 31 39 44 52 52 53 57 53 55
83 80 75 69 65 59 53 47 42 37 34 31 28 25 24 22 21 20 19 19 18 17 17 16 15 13 13 12 11 11 11 10 10 10 10 10 10 10 10 10 10 10 10 11 11 12 13 14 14 13 13 12 12 11 12 12 11 12 12 11 12 13 13 13 13 13 14 14 14 14 12 11 11 10 10 11 11 13 12 13 16 18 22 25 32 35 32 36
84 78 71 64 59 53 48 43 39 35 31 29 26 24 22 21 20 19 18 17 17 16 15 15 13 13 12 12 11 11 11 11 10 11 11 11 11 11 11 10 10 10 10 10 10 11 11 12 12 13 13 12 12 12 11 11 12 11 11 12 11 11 11 12 13 13 13 14 14 14 14 14 13 12 12 11 11 11 12 11 10 11 11 12 20 23 20 20
81 73 66 60 54 49 44 40 36 33 30 27 24 22 21 20 18 18 17 16 16 15 14 14 13 13 12 12 12 12 12 12 12 13 13 13 13 13 12 12 11 11 10 10 10 10 11 11 11 11 11 12 12 12 11 11 11 11 11 11 11 11 11 10 10 12 13 14 14 14 14 14 15 15 14 14 13 13 13 11 9 11 9 13 25 25 18 14
75 68 61 56 50 45 40 36 33 30 27 25 23 21 20 19 18 17 16 16 15 15 14 14 14 13 13 13 13 14 14 14 15 15 15 15 15 15 15 14 13 13 12 11 11 11 11 11 11 11 11 11 11 11 11 11 11 11 11 11 11 11 10 10 10 10 12 13 14 15 14 14 15 15 15 15 15 15 15 14 12 14 14 22 33 27 17 14
67 61 54 49 44 39 35 32 29 26 24 22 21 20 18 18 17 16 16 16 15 15 15 15 15 14 15 15 16 16 16 16 17 17 17 16 16 16 16 16 16 15 15 14 13 13 13 12 12 12 12 11 11 11 11 11 11 11 12 11 11 11 11 11 11 11 11 12 14 15 15 15 15 15 15 16 16 16 15 15 13 17 23 27 30 24 15 14
58 52 47 42 38 34 31 28 26 24 22 21 20 19 18 17 17 17 17 17 16 16 16 16 17 17 18 19 19 19 18 18 17 17 17 16 16 16 16 17 17 17 17 16 16 15 15 15 14 13 13 12 12 12 12 12 12 13 13 12 12 12 11 11 11 12 11 13 15 16 17 16 16 17 16 16 16 16 16 16 14 16 20 19 20 18 14 13
50 45 40 37 33 30 27 25 24 22 21 20 19 19 18 18 18 18 17 17 17 17 18 18 20 21 22 21 20 19 18 18 17 16 16 15 15 15 16 16 17 17 17 18 18 17 17 17 17 16 15 15 14 14 14 14 15 15 13 13 14 13 13 13 13 13 13 14 15 17 18 17 17 17 18 18 18 18 17 17 16 15 15 15 15 15 13 13
43 39 35 32 30 27 25 24 22 21 20 20 19 19 19 19 19 18 19 18 18 19 21 23 24 24 24 22 20 19 18 17 16 15 15 15 15 15 15 16 16 16 17 18 18 18 18 18 18 18 18 17 16 17 16 16 17 16 15 16 16 16 15 14 14 15 15 15 16 19 18 18 19 20 21 20 19 20 19 18 18 17 15 16 16 15 14 14
38 35 33 31 28 26 25 24 23 21 21 20 20 20 20 19 20 20 21 21 21 24 26 27 27 26 24 22 19 18 17 17 16 16 15 15 15 15 15 16 16 16 17 17 17 18 18 19 19 19 20 18 18 19 18 19 19 17 19 18 17 18 16 16 16 16 17 17 18 19 19 19 21 23 22 22 23 21 21 20 18 17 17 17 16 15 15 14
35 34 31 30 28 26 25 24 23 23 21 21 20 21 21 22 23 24 24 26 27 29 29 29 27 26 23 21 19 18 17 17 17 17 17 16 16 16 16 16 16 16 17 17 17 18 18 19 20 20 20 19 21 21 19 20 21 21 23 21 20 20 18 18 18 18 19 19 20 21 21 23 24 26 24 24 26 24 23 22 20 20 18 18 18 16 16 15
34 33 31 29 28 26 25 25 24 23 22 21 22 22 25 27 28 29 31 32 33 32 31 29 27 25 23 20 19 18 18 18 18 18 17 17 17 17 17 16 17 17 17 17 18 18 19 19 20 20 20 21 22 20 21 24 23 24 26 23 22 21 21 22 21 21 21 21 22 23 24 26 27 28 27 27 28 26 25 24 22 21 19 19 19 17 18 17
33 32 30 29 28 26 25 25 24 23 23 23 25 29 33 35 35 36 37 37 36 33 30 28 26 24 22 20 19 19 19 18 19 19 18 18 18 18 18 17 17 17 17 18 18 18 18 19 20 20 20 21 21 21 24 26 26 26 27 26 25 25 26 26 23 22 25 25 26 26 27 28 30 31 29 29 30 28 27 26 24 22 22 21 19 20 21 19
33 31 30 28 27 27 26 26 25 24 24 26 32 39 42 41 41 42 41 40 36 32 29 28 26 24 21 20 20 20 19 19 19 19 19 19 18 18 18 18 18 18 18 18 19 19 18 19 19 20 21 21 21 24 25 26 28 29 30 31 31 32 32 29 26 28 30 30 29 30 32 32 34 33 30 30 31 30 28 27 25 23 23 21 21 22 21 21
32 29 28 27 27 28 28 28 27 25 28 33 41 47 49 48 46 45 43 40 36 32 30 28 26 24 21 20 21 21 19 20 20 19 19 19 18 19 18 18 18 18 19 19 19 19 19 19 19 19 20 21 21 23 24 26 29 31 33 36 36 37 37 32 31 36 35 32 33 35 36 37 36 31 30 34 33 31 29 28 27 25 24 24 23 23 22 22
33 29 27 27 28 29 30 30 29 30 35 41 49 54 53 51 49 45 43 41 37 32 30 29 28 24 21 21 22 21 20 20 20 20 19 19 19 18 18 18 18 18 18 19 19 19 19 18 19 19 20 21 22 23 24 26 29 32 35 38 39 40 42 38 36 41 38 35 38 39 38 39 36 32 33 35 33 31 30 28 28 26 25 26 25 25 24 22
33 29 27 28 29 31 32 32 32 37 43 49 56 58 55 52 48 45 43 41 37 34 32 32 29 25 22 22 23 22 21 21 21 20 20 19 19 18 18 18 18 18 18 18 18 18 18 18 18 19 19 20 21 22 24 25 28 31 34 38 40 41 45 42 39 42 40 38 41 41 40 40 37 35 35 34 33 31 30 29 29 27 26 27 27 26 24 22
33 30 30 30 30 32 34 34 39 47 51 56 60 60 56 51 47 44 43 41 39 36 35 35 31 27 24 23 24 24 23 22 21 21 20 19 19 19 19 18 18 18 18 18 18 18 18 19 19 19 20 20 21 22 23 23 25 28 32 37 39 41 45 45 41 41 42 42 44 43 41 41 38 35 35 34 32 31 31 30 29 28 27 27 26 25 24 24
34 33 33 33 32 35 35 37 50 59 60 64 65 62 58 51 46 44 43 42 41 38 37 36 32 29 27 25 26 26 24 23 22 21 20 20 19 19 18 18 18 18 18 18 18 19 19 18 19 19 20 20 20 22 22 23 25 29 33 35 38 40 43 44 39 39 43 43 42 42 41 39 38 36 36 34 32 32 31 29 29 28 27 26 26 26 24 23
36 36 35 35 33 36 37 42 61 70 70 71 69 65 60 50 45 43 42 43 42 41 39 37 34 30 28 28 29 27 25 24 23 21 20 20 19 19 19 18 18 18 18 19 19 19 19 19 20 19 20 20 21 22 22 23 25 28 31 32 35 38 39 40 35 35 42 42 39 40 39 39 38 35 34 33 32 31 30 30 29 27 26 25 26 26 25 23
38 37 37 37 35 39 39 43 65 76 74 73 68 65 61 51 45 42 41 43 43 43 41 38 36 31 30 31 30 28 26 25 23 22 21 20 19 19 19 18 18 18 18 19 20 20 20 20 20 20 20 21 22 22 22 23 24 26 28 30 33 35 36 35 32 35 40 38 37 37 37 38 37 34 32 32 31 30 30 29 27 27 26 23 25 26 26 23
40 39 39 39 37 42 42 46 65 74 72 71 64 61 59 51 45 41 41 43 43 45 43 40 36 33 32 33 32 29 27 26 24 23 21 20 20 19 19 18 18 18 19 20 20 21 21 21 20 20 22 23 23 23 23 24 24 26 27 29 30 32 33 32 32 33 34 34 34 33 35 36 34 33 31 30 30 29 29 27 26 26 24 24 27 26 26 24
44 42 42 41 40 44 46 50 68 77 73 69 62 59 57 51 46 40 39 43 43 45 46 41 37 36 35 34 32 30 28 27 25 24 22 20 20 19 19 18 18 18 19 20 20 21 21 21 21 22 24 24 24 24 24 24 24 26 26 27 29 29 28 28 29 29 30 33 32 31 34 32 32 32 30 30 29 27 27 26 26 26 26 28 26 26 27 23
46 45 44 44 44 47 48 54 72 81 76 68 61 57 54 50 46 40 39 41 42 45 48 45 39 37 38 35 33 31 30 29 27 25 22 21 20 20 19 19 19 19 19 19 21 21 21 21 23 24 24 24 24 24 24 24 25 25 26 27 27 26 27 27 26 28 30 31 30 30 30 29 31 32 29 29 27 27 29 28 27 27 27 26 25 27 27 22
50 48 48 47 46 48 52 60 74 82 77 68 59 55 53 49 45 41 39 41 42 44 48 49 43 39 40 38 33 32 32 30 28 26 23 21 20 20 20 19 19 19 19 20 20 21 21 23 25 25 24 24 24 25 25 25 26 26 27 27 26 25 27 27 26 29 30 30 31 29 28 29 30 29 30 28 27 31 38 37 32 30 29 28 28 27 22 22
53 52 50 49 47 49 56 66 76 81 76 66 57 53 52 49 45 42 40 40 42 44 47 50 47 43 42 40 35 33 34 33 30 27 24 22 21 20 20 20 19 19 19 20 20 21 22 24 25 25 25 25 24 25 25 25 26 26 27 26 26 27 27 27 28 30 31 31 32 29 28 29 28 31 31 28 28 30 36 37 31 31 30 25 26 27 26 29
56 54 52 50 49 50 57 66 74 78 72 63 57 52 50 49 45 41 40 39 45 48 47 50 50 46 44 41 36 35 37 35 31 28 26 23 21 21 21 20 20 20 20 20 20 21 22 24 25 25 25 26 25 25 24 25 26 26 28 28 28 29 29 30 29 31 33 32 33 31 29 29 30 36 34 33 37 35 32 30 28 34 32 31 47 54 49 47
57 55 53 51 51 51 54 60 66 69 64 58 54 49 48 48 44 42 39 40 52 58 52 50 50 49 47 43 38 37 39 36 31 31 28 25 22 21 21 21 20 20 20 21 20 21 23 24 25 26 27 26 25 25 25 26 26 27 29 29 30 30 31 32 32 34 35 34 34 33 32 33 32 34 32 33 36 33 34 31 29 35 32 39 60 63 67 77
57 54 53 51 50 50 50 53 56 57 54 50 48 47 47 45 43 41 38 48 68 69 56 51 51 52 51 46 40 38 40 38 35 33 30 26 23 21 21 21 20 21 21 21 20 21 23 25 26 27 28 27 26 27 26 26 26 27 29 29 31 32 32 34 35 36 36 34 35 35 35 35 33 34 34 34 34 37 46 44 36 40 38 46 60 62 80 97
55 53 52 50 49 49 49 50 51 50 47 45 43 44 45 45 43 38 42 67 83 72 60 56 54 55 52 47 43 39 41 42 38 35 32 29 25 21 22 22 23 25 25 23 22 23 24 25 28 28 27 27 27 27 26 26 25 26 28 29 31 32 33 36 37 38 39 38 37 37 38 37 35 37 37 39 40 42 50 51 48 50 46 51 66 68 77 93
57 55 53 52 51 50 50 50 50 48 46 45 43 43 44 43 41 41 56 82 87 73 69 64 57 56 52 48 44 39 42 46 41 37 34 32 28 23 22 23 25 28 26 25 24 24 24 25 27 28 27 27 27 27 27 26 27 28 29 31 32 34 35 36 38 40 40 40 40 42 43 44 44 37 37 47 47 40 48 56 58 59 51 54 63 56 59 83
62 61 58 56 54 52 52 52 50 49 46 45 43 42 43 40 43 54 70 89 91 79 72 66 59 56 53 49 44 41 45 49 46 40 36 35 30 24 23 23 28 33 31 28 26 24 24 25 26 27 28 28 28 29 29 29 30 30 32 32 34 42 40 35 41 45 47 52 53 50 48 52 53 39 40 61 60 51 65 74 65 58 60 74 80 65 63 82
70 69 67 64 60 56 54 52 51 50 48 46 44 42 41 42 51 66 82 94 93 78 67 66 63 58 54 50 46 44 46 50 51 43 38 38 33 28 24 23 33 40 36 33 33 32 30 27 29 30 30 31 31 31 31 32 33 32 33 35 43 58 53 39 44 52 55 58 54 50 49 50 52 39 38 56 53 51 79 96 85 73 80 95 99 92 86 87
81 80 78 76 72 66 62 59 57 55 51 50 46 42 44 51 60 75 91 96 83 68 65 66 62 58 56 51 47 46 44 49 56 49 41 40 37 33 26 25 37 40 38 42 43 39 37 34 33 33 32 34 35 33 32 33 34 33 35 39 49 64 58 41 44 53 56 52 44 44 46 44 49 47 44 51 46 48 79 100 96 93 99 102 96 96 93 76
83 81 80 79 76 73 67 64 63 60 57 54 49 48 53 60 67 75 84 84 71 63 64 64 60 58 57 51 46 45 43 49 59 55 48 44 41 38 31 28 36 38 40 51 50 43 44 42 37 34 36 39 37 34 34 35 36 34 35 41 47 53 52 44 43 50 54 52 46 47 51 51 58 63 65 68 59 56 72 83 84 86 85 81 76 76 73 63
75 74 73 72 71 69 66 64 63 61 60 57 54 56 59 61 65 68 70 71 67 62 59 58 57 55 55 52 46 45 46 52 62 61 56 54 49 43 37 29 32 39 46 57 61 55 49 44 41 41 40 40 40 38 37 38 38 37 38 44 45 45 48 46 44 44 48 51 49 51 58 61 64 71 79 83 70 58 60 61 69 84 84 82 86 80 68 65
60 60 59 58 58 57 55 54 54 53 54 52 51 53 54 54 58 59 58 61 62 55 50 53 54 54 55 52 47 48 49 53 66 70 63 62 57 50 48 38 30 36 45 61 72 65 54 50 49 52 49 43 45 44 43 45 44 43 46 47 47 49 50 47 46 46 46 50 50 50 57 59 57 62 69 72 65 55 50 45 55 85 100 99 102 97 84 73
54 53 51 51 49 48 46 44 44 44 43 44 43 44 44 45 48 48 48 52 52 47 46 48 49 50 52 50 48 50 50 54 66 74 70 66 61 56 59 51 37 36 43 62 80 79 77 72 58 54 52 48 48 47 50 58 54 50 54 52 51 56 54 48 47 49 50 53 53 50 53 52 49 51 55 59 58 53 48 42 48 71 90 98 103 104 99 88
56 54 52 52 50 48 46 44 44 43 42 42 41 41 41 41 43 43 43 47 46 43 44 43 43 48 49 50 48 49 56 60 64 76 81 75 68 62 62 59 51 44 43 61 83 93 99 95 77 64 55 51 55 56 59 65 60 55 55 54 57 59 56 53 56 61 61 60 57 53 51 48 44 46 50 55 56 57 57 53 51 55 63 84 100 100 98 94
54 51 50 48 47 46 45 44 44 43 43 43 43 43 42 43 46 46 45 46 45 44 44 42 44 48 47 48 49 49 57 61 64 77 80 74 75 73 66 65 62 53 50 61 79 92 101 105 99 86 72 66 64 59 60 62 60 61 60 60 63 62 59 57 59 66 68 64 60 55 50 47 44 44 47 52 55 58 58 53 52 51 52 67 80 80 83 89
43 42 40 39 39 38 37 37 37 37 38 38 39 40 41 43 48 49 48 47 48 49 48 45 46 48 47 50 51 49 53 57 66 80 78 73 82 83 71 65 62 60 59 59 67 86 101 104 103 98 94 91 74 62 70 73 66 69 72 70 68 66 65 59 55 62 66 64 61 56 50 48 47 47 46 47 49 49 49 47 47 48 49 55 60 63 72 78
35 33 32 31 30 29 29 28 28 28 29 30 32 33 34 38 42 43 44 46 49 51 50 49 51 52 51 52 50 49 54 58 66 81 87 83 83 88 86 74 62 60 60 54 59 85 102 99 99 103 104 103 91 87 97 92 77 80 88 86 78 73 69 61 60 65 63 62 62 59 57 54 57 65 59 47 43 42 42 42 41 40 44 54 63 74 83 84
32 31 30 29 27 26 25 26 25 24 23 23 25 26 27 31 33 35 38 42 45 48 48 51 53 53 54 56 56 56 58 62 69 84 100 98 87 91 94 79 63 55 55 52 55 78 94 90 94 104 104 102 100 104 110 100 90 97 100 94 89 87 84 79 80 79 73 75 80 79 75 67 66 74 68 55 49 44 41 39 38 41 51 67 80 91 101 100
33 32 32 30 28 27 25 25 26 24 23 22 22 22 22 24 26 28 32 35 37 41 45 48 49 50 55 59 62 62 61 67 76 86 102 109 102 95 83 70 63 55 51 52 51 60 73 78 88 100 102 104 101 98 102 101 101 106 102 99 100 99 99 98 98 96 93 96 100 98 92 83 77 78 74 69 65 55 49 49 51 54 63 80 93 99 105 105
36 34 33 31 29 28 27 26 26 25 24 23 22 22 21 21 22 24 26 29 32 35 39 42 44 47 54 58 61 64 66 71 76 83 99 110 110 101 80 66 66 61 55 55 53 54 56 62 77 82 85 102 105 95 98 103 105 106 102 104 107 103 101 102 103 103 100 100 105 104 99 95 91 92 92 88 81 68 55 53 60 65 69 81 93 96 99 100
37 35 34 31 29 28 27 26 26 25 23 22 21 21 20 20 21 22 22 24 27 31 35 39 43 46 50 57 63 66 70 74 76 82 94 101 105 104 87 69 67 69 65 58 55 57 54 55 67 67 67 88 97 92 99 106 105 104 103 104 104 103 104 104 104 104 99 99 105 103 100 99 96 98 103 98 88 78 67 63 70 74 74 80 85 85 86 89
35 34 32 31 29 27 25 25 24 23 22 21 20 20 20 19 21 21 21 21 23 28 33 36 40 43 46 54 62 67 72 75 75 78 81 86 95 100 88 74 72 75 74 66 60 61 59 56 61 61 62 76 86 89 93 95 96 99 101 103 103 102 103 103 104 105 103 104 104 99 100 105 100 98 103 103 94 86 79 77 80 80 79 81 83 81 82 84
34 33 33 31 30 28 26 24 22 21 19 18 17 18 18 18 20 21 21 22 21 25 31 34 37 40 43 48 55 64 71 73 75 82 84 87 96 98 88 83 83 84 83 78 69 64 62 62 61 59 59 65 79 92 92 86 89 96 95 97 101 104 102 101 102 103 103 103 101 100 102 103 101 100 102 103 101 96 90 87 87 88 89 90 91 92 91 88
34 33 33 32 30 28 26 24 21 18 16 15 14 15 16 16 18 20 21 22 23 24 28 32 35 38 41 44 48 58 71 76 79 87 91 92 96 96 92 93 96 94 90 88 83 74 67 65 64 62 59 57 65 80 85 79 84 94 97 96 100 104 101 98 99 100 102 102 101 102 103 101 101 104 102 100 102 102 102 99 95 93 93 96 99 99 95 93
35 34 33 33 31 29 27 23 19 15 15 15 14 13 14 15 16 19 21 22 23 25 28 30 34 38 39 42 46 53 65 75 79 83 88 91 93 92 94 99 99 93 89 90 92 85 76 71 69 66 65 62 60 64 68 66 65 74 87 93 96 100 101 99 98 99 100 100 99 99 100 101 105 106 104 103 101 101 103 104 101 96 92 92 94 92 87 87
36 36 35 34 33 31 29 24 18 16 17 17 16 15 14 15 16 18 20 23 24 26 28 30 33 37 39 41 43 48 57 69 78 82 86 91 93 93 95 98 96 90 88 91 95 94 89 84 78 72 70 71 68 63 61 61 56 55 67 77 78 82 91 98 100 99 99 100 101 100 99 102 106 107 109 109 106 104 104 102 101 99 94 89 86 84 83 81
Wind_Speed
64 65 66 66 66 66 67 67 67 68 68 69 70 71 72 72 73 74 75 75 76 76 77 77 78 78 78 79 79 79 80 80 81 81 81 82 83 83 83 83 83 83 83 83 83 84 84 84 84 84 84 84 85 85 86 86 87 88 89 91 91 92 93 93 91 92 92 89 86 89 93 93 93 94 96 96 97 98 99 99 99 99 93 90 93 93 92 92
65 66 66 67 67 67 67 68 68 69 69 70 71 72 73 73 74 75 76 77 77 77 78 78 79 79 79 79 79 79 79 79 80 80 81 82 82 83 84 84 83 83 84 84 85 85 85 85 85 84 83 83 83 83 84 85 85 86 88 89 90 92 93 92 91 91 90 88 86 89 91 91 91 92 93 94 94 95 96 97 97 97 94 93 94 93 93 92
66 66 67 67 67 68 68 69 69 70 70 71 72 73 73 74 75 76 76 77 77 77 77 78 78 78 78 78 78 78 78 78 78 78 80 80 81 82 83 83 83 83 84 84 85 85 86 86 85 85 84 83 83 82 83 84 84 84 85 86 89 91 91 90 90 90 89 88 87 89 90 89 89 89 91 91 90 90 93 94 94 94 94 93 91 92 94 91
66 66 66 67 67 68 68 69 69 70 71 71 72 73 73 74 74 75 75 76 76 76 76 76 76 76 76 76 76 76 76 75 75 76 77 77 78 80 81 82 82 82 83 83 84 85 85 86 85 85 84 84 83 83 83 83 84 84 84 85 87 87 87 88 88 88 87 87 87 88 89 88 88 88 89 89 88 87 90 91 90 90 90 89 88 90 91 91
65 66 66 66 67 68 68 69 69 70 71 71 72 72 72 73 73 73 73 74 74 74 74 74 74 74 74 74 74 73 73 72 71 73 74 74 75 76 78 78 79 80 81 82 83 83 84 84 85 85 84 84 84 83 83 83 84 83 83 86 86 84 85 85 84 84 85 86 86 87 87 87 87 88 87 88 88 87 88 89 88 87 85 83 82 85 87 89
65 65 66 66 67 68 68 69 69 70 70 70 71 71 71 71 71 72 72 72 72 72 72 72 71 71 71 71 70 70 69 68 68 70 70 71 72 73 74 75 76 77 78 79 80 81 82 82 83 83 83 83 82 82 83 83 83 82 83 85 84 83 84 82 80 82 83 83 84 85 85 86 85 86 86 87 87 87 87 87 86 83 80 77 76 82 85 85
64 65 66 66 67 67 68 68 69 69 69 69 69 70 70 70 70 70 70 70 70 69 69 68 68 68 68 67 67 67 66 64 65 67 67 68 69 70 71 72 73 74 75 76 77 78 79 79 80 81 81 81 80 80 82 81 81 81 82 83 82 83 83 80 79 80 80 80 81 82 83 84 84 83 84 85 85 86 87 86 85 80 76 75 75 79 81 81
64 65 66 66 67 67 67 68 68 68 68 68 68 69 69 68 68 68 68 68 67 66 66 65 65 64 64 64 64 63 62 61 63 65 65 66 66 67 68 69 70 71 72 73 74 75 76 76 77 77 78 78 78 78 79 78 78 80 81 81 81 81 80 78 78 79 78 78 78 79 81 81 81 81 81 82 82 83 84 84 84 81 79 78 78 80 80 79
64 65 65 66 66 66 67 67 67 67 67 67 67 67 67 67 66 66 66 65 64 63 63 62 61 61 61 61 61 60 59 60 62 62 63 64 65 65 66 67 68 69 70 71 72 72 73 73 74 74 74 75 74 74 75 74 76 78 78 79 78 78 78 77 76 77 77 76 76 77 78 78 78 79 79 80 79 80 82 81 80 80 79 79 78 79 78 77
64 65 65 65 66 66 66 67 67 67 66 66 65 65 65 64 64 63 62 62 61 60 60 59 59 58 58 58 59 57 57 60 60 60 62 62 63 63 64 65 66 67 68 69 70 71 71 71 72 72 71 72 71 72 72 71 75 75 75 76 76 76 77 75 75 75 75 74 74 75 76 76 75 76 77 77 76 77 78 77 78 78 76 75 75 75 75 74
65 65 65 65 66 66 66 66 66 65 65 64 63 62 62 61 60 60 59 59 58 57 57 57 56 56 56 56 56 55 56 58 58 58 60 60 61 62 62 63 65 66 66 67 68 69 69 70 70 70 71 70 68 70 69 69 72 71 72 74 73 75 75 73 73 73 73 72 72 73 73 72 72 74 75 73 73 75 75 75 76 75 73 72 71 72 72 72
65 65 65 65 65 65 65 64 64 63 62 61 60 59 58 58 57 57 56 56 56 55 55 54 54 54 54 54 54 54 55 55 56 57 58 58 59 60 61 62 63 64 65 66 67 68 69 69 70 70 70 67 67 69 67 68 69 68 71 71 70 73 71 70 71 70 71 70 70 71 70 69 70 72 73 70 70 73 73 74 74 72 71 70 69 70 70 70
66 65 65 65 64 63 62 62 61 60 59 57 56 56 55 55 54 54 54 54 53 53 53 52 52 52 52 52 53 53 53 53 54 55 56 57 58 58 60 61 62 63 63 65 66 67 68 68 70 70 68 67 69 67 64 66 67 66 69 69 68 70 67 68 69 67 68 68 67 68 67 67 68 70 70 66 69 72 71 72 72 71 70 69 69 69 69 69
66 65 64 63 62 60 59 59 58 57 55 54 53 53 52 52 52 51 51 51 51 51 51 51 51 50 51 50 51 51 51 51 52 53 54 55 56 57 57 58 60 61 62 63 65 66 67 68 69 69 67 68 67 63 63 66 65 65 67 66 65 65 65 67 66 64 65 65 65 65 65 65 66 68 67 64 67 70 70 71 71 70 69 69 68 68 67 68
65 63 61 60 58 58 57 56 55 54 53 52 51 50 50 50 50 49 49 49 49 49 49 49 49 49 49 48 49 49 49 49 50 51 52 53 54 54 55 56 57 58 60 61 63 65 66 67 68 68 67 67 65 63 65 64 63 64 64 63 62 62 64 65 63 62 64 64 63 62 63 63 66 67 64 63 66 68 69 70 71 70 68 68 67 66 66 66
63 61 59 57 56 55 54 54 53 52 51 50 49 48 48 48 48 48 47 47 47 47 47 47 47 47 46 46 47 47 47 48 48 49 50 51 52 52 53 54 55 56 57 59 61 63 64 66 67 66 66 66 65 64 64 63 62 62 61 61 61 61 64 63 59 61 63 61 60 61 62 64 67 64 60 63 66 67 68 68 70 69 66 65 64 64 64 65
62 60 58 56 54 53 52 52 51 50 49 48 47 47 47 47 46 46 46 46 46 45 46 45 46 45 44 44 45 46 46 46 47 47 48 49 50 50 51 52 53 54 56 57 59 60 62 64 65 65 65 65 64 64 63 62 62 62 61 61 61 60 62 61 58 60 61 58 58 60 62 64 66 61 59 65 66 66 67 66 68 68 64 63 62 62 63 64
62 60 58 55 54 52 51 50 50 49 48 47 46 46 47 46 45 45 45 45 44 44 44 44 45 43 41 42 43 44 44 44 45 45 46 47 48 48 49 50 51 53 54 56 57 59 60 61 62 63 63 63 63 63 62 62 62 62 61 61 60 59 60 60 57 58 58 56 58 60 61 64 65 60 61 65 65 65 66 64 66 66 63 62 61 62 63 63
63 60 58 56 53 52 50 49 48 47 46 46 46 46 46 46 45 44 45 44 43 43 43 43 43 41 40 41 41 42 42 42 43 44 44 45 46 46 48 49 50 51 52 54 55 57 58 59 60 60 60 62 62 62 63 62 61 60 60 60 59 59 60 61 58 55 56 56 58 60 61 64 64 61 62 64 63 64 64 63 65 65 63 62 61 61 61 61
62 60 59 56 53 51 50 48 47 46 45 45 45 46 46 45 44 44 44 43 42 42 42 42 42 39 38 39 40 40 41 41 42 43 43 44 44 45 46 47 48 49 51 52 53 54 56 56 57 58 59 60 60 61 61 60 59 59 62 61 60 60 60 62 59 52 55 58 59 60 61 63 63 61 61 62 62 62 63 63 64 64 63 62 60 59 60 60
61 60 58 56 53 51 49 47 46 46 45 45 46 46 46 44 43 43 44 43 42 42 42 41 41 38 37 38 39 40 40 40 41 42 42 43 43 44 45 46 47 48 49 50 51 53 53 54 55 56 57 57 58 59 59 58 59 61 62 61 61 61 61 63 57 50 56 60 59 60 61 61 63 62 60 60 60 61 62 62 63 63 62 60 58 57 57 58
59 58 57 55 52 50 49 47 46 46 45 46 47 47 46 44 42 43 43 42 41 41 41 41 40 38 36 37 39 39 38 39 39 40 41 41 42 42 43 44 46 47 47 48 49 51 51 52 54 54 53 54 56 57 57 58 59 60 61 61 61 62 62 61 55 52 59 61 60 59 59 61 63 62 60 59 60 60 61 62 62 62 61 59 56 54 55 56
57 56 55 53 52 50 48 47 46 46 46 46 47 47 46 44 42 43 43 43 41 40 41 41 39 37 36 37 39 38 37 37 38 39 40 40 40 41 42 43 44 45 46 47 48 49 50 51 51 50 50 52 54 55 56 57 58 59 60 61 61 62 62 59 56 57 60 60 60 58 59 61 62 61 60 59 60 60 60 61 60 60 58 55 53 52 52 53
54 54 53 52 51 49 48 47 45 45 45 45 46 47 46 44 42 43 43 43 41 39 41 41 38 37 37 38 38 37 36 36 36 38 39 39 39 40 41 42 43 44 46 47 47 49 49 49 48 48 50 52 53 54 55 55 57 58 59 60 60 61 61 59 58 58 58 60 60 59 60 61 60 61 61 59 60 59 59 59 57 56 54 52 51 50 50 51
52 52 52 51 50 49 49 47 45 45 45 44 46 47 46 44 43 43 43 43 41 39 41 42 38 37 37 38 38 36 35 35 36 37 38 38 39 40 40 40 42 44 46 46 47 48 47 45 46 48 50 51 52 52 53 54 55 56 57 58 60 59 58 58 57 57 58 59 60 60 60 60 60 61 60 59 60 57 56 55 54 53 52 51 50 47 49 50
51 51 51 50 50 50 49 48 46 45 45 45 47 47 46 45 44 43 43 43 42 39 40 41 40 37 37 39 38 35 34 35 35 36 37 37 38 39 39 40 42 43 45 45 46 47 45 44 47 48 49 50 50 51 52 52 53 54 55 57 57 55 56 56 54 56 58 58 59 60 59 59 59 60 59 59 57 53 51 51 51 50 50 49 46 45 47 47
49 50 50 50 50 50 49 49 48 46 45 46 47 47 46 46 44 44 44 43 42 41 40 40 40 39 37 38 38 35 34 34 35 35 36 37 37 38 39 40 41 42 44 45 45 45 44 45 47 48 48 49 49 50 50 51 52 52 53 54 53 52 53 53 53 54 56 57 58 59 57 57 57 57 58 58 55 52 50 50 49 48 47 46 44 43 43 43
48 49 50 50 50 50 50 51 50 49 48 48 47 47 47 47 46 45 44 43 42 42 41 40 41 40 38 38 38 35 34 35 35 34 35 35 36 37 38 39 40 42 43 44 44 44 44 46 47 46 47 48 49 49 48 50 50 50 51 51 50 50 50 51 51 52 54 55 56 57 56 55 54 55 56 52 48 48 50 50 48 46 45 42 37 35 36 36
47 48 49 49 50 50 51 51 52 52 51 49 48 48 48 47 46 46 45 42 43 45 43 41 41 40 39 38 37 36 36 36 34 33 34 35 37 37 37 38 39 40 42 44 44 43 43 45 46 46 48 49 48 47 48 50 49 49 49 49 48 48 48 49 50 51 53 53 53 54 53 53 54 54 54 50 46 47 49 48 46 42 41 37 33 31 30 29
47 48 49 49 50 50 51 52 53 53 53 51 49 49 48 48 47 46 43 41 44 48 45 42 41 40 40 38 37 37 37 36 34 34 35 35 36 37 37 37 38 39 42 44 43 42 44 45 46 48 49 49 47 48 49 50 49 48 48 48 47 48 48 49 49 51 52 52 51 52 51 53 54 51 50 49 46 45 43 42 41 38 36 34 32 30 28 27
47 48 48 49 49 50 51 52 53 54 53 52 51 49 49 48 47 45 42 43 48 49 45 43 42 41 40 38 38 37 37 36 35 35 34 34 36 36 36 37 37 39 41 42 42 43 45 46 47 49 49 49 48 49 50 49 48 48 48 47 47 48 48 48 49 50 50 50 50 50 50 51 53 49 46 46 44 42 39 39 39 37 35 35 33 31 31 32
47 48 48 49 50 50 51 52 53 53 53 53 51 49 49 48 46 44 42 47 51 48 45 45 43 42 41 39 38 38 37 37 36 35 34 34 36 36 36 36 36 39 41 42 43 45 46 46 48 49 49 48 49 49 49 49 48 47 48 47 47 48 49 48 48 48 49 49 49 48 48 50 52 48 42 42 43 41 39 39 38 37 36 37 37 36 35 35
46 48 49 49 50 50 51 52 53 54 53 53 52 50 49 47 45 44 46 51 52 48 47 46 44 43 41 40 39 37 37 37 36 35 34 34 35 35 36 36 36 38 40 41 43 44 45 46 47 47 47 48 48 48 49 48 48 48 48 47 47 48 49 48 47 48 48 49 48 48 48 49 52 47 39 39 41 38 37 36 36 36 34 32 35 35 32 30
46 48 49 50 51 51 52 52 53 54 54 53 52 50 48 46 45 47 50 54 53 49 47 46 45 44 42 41 40 38 38 37 37 36 35 34 35 35 36 35 35 37 39 39 41 42 45 45 46 47 48 48 49 49 49 49 49 49 48 47 47 49 51 49 48 49 50 51 49 48 49 50 50 47 41 42 42 38 37 35 33 32 29 29 32 32 29 27
45 47 48 50 51 51 52 52 52 54 53 53 52 50 48 46 47 50 53 56 54 49 47 48 46 44 43 43 41 40 39 37 36 37 35 34 34 34 35 35 36 38 38 38 40 42 44 45 47 48 47 48 49 49 49 49 49 49 49 49 49 51 52 50 48 49 50 51 49 48 49 49 47 45 44 44 42 39 37 34 33 31 30 33 36 37 36 34
46 47 48 50 51 52 52 52 53 54 54 54 53 50 49 49 50 53 56 56 53 49 48 49 47 45 45 46 44 41 39 36 36 36 35 34 34 34 35 36 37 38 37 38 40 41 43 45 46 47 47 48 50 49 49 49 50 50 49 50 52 52 52 51 50 50 50 50 48 48 48 46 45 45 43 41 40 39 38 37 37 37 38 40 41 41 42 41
47 48 50 51 52 53 53 53 54 55 56 55 53 51 51 52 53 56 56 55 54 52 50 50 48 46 47 47 44 40 38 37 36 36 35 34 34 34 35 36 37 37 37 37 39 41 43 44 44 45 47 48 48 48 48 49 50 49 49 51 52 52 52 52 51 51 50 50 49 48 48 47 45 45 43 41 40 40 41 41 37 36 38 40 40 42 44 44
48 50 51 52 54 54 55 55 56 57 57 56 54 53 55 54 56 58 56 55 57 55 51 50 49 47 48 48 44 41 39 37 36 37 36 34 33 34 35 36 37 38 38 37 39 40 41 41 41 44 47 47 48 48 47 48 49 49 50 52 51 51 52 52 52 51 51 51 51 50 51 50 48 48 46 44 44 44 44 43 38 35 36 37 38 41 45 45
50 51 52 53 54 55 56 56 56 58 58 57 56 56 57 56 58 59 56 56 59 56 52 52 51 48 48 48 45 41 39 38 38 38 37 36 35 35 36 36 35 37 38 38 38 38 38 40 42 44 45 45 47 47 46 48 50 49 51 51 51 51 52 51 50 51 51 52 52 52 52 52 51 49 47 45 47 47 45 44 43 40 40 40 40 41 41 41
50 51 51 52 54 55 56 56 56 57 57 57 57 57 58 57 58 59 57 58 59 57 55 54 50 47 49 50 47 41 40 40 39 38 38 38 37 36 36 35 35 37 38 39 39 37 37 38 40 42 42 42 45 46 47 49 50 50 51 51 51 53 52 51 49 48 50 51 52 53 52 52 51 49 47 48 49 47 43 45 47 46 46 46 43 40 40 40
49 49 50 51 52 53 54 54 55 56 56 57 57 57 57 56 57 59 58 59 59 57 56 54 49 49 51 50 47 43 43 43 41 40 41 40 37 38 38 37 37 38 39 40 41 40 38 38 39 40 39 41 44 46 47 49 49 49 50 50 51 52 52 52 50 48 49 50 51 53 53 52 53 52 50 51 51 49 47 47 49 50 51 51 48 46 45 43
48 48 48 49 50 51 52 53 54 54 55 56 56 56 56 55 57 59 59 58 57 57 57 54 50 51 50 49 49 47 45 44 42 42 43 41 39 40 40 39 39 39 40 42 42 41 40 40 40 38 37 40 43 43 44 47 48 48 49 50 51 51 52 53 51 51 52 51 51 53 52 52 53 54 54 55 54 52 52 53 53 54 54 54 54 52 50 48
45 45 45 45 46 47 47 49 50 51 53 53 54 56 56 55 58 59 58 57 57 58 57 53 52 52 50 50 51 48 45 45 44 44 43 43 43 42 42 42 42 41 42 42 41 42 43 42 41 39 38 40 40 39 42 46 47 46 48 50 51 51 52 52 51 53 54 53 54 54 53 52 53 53 55 56 55 54 54 55 56 56 55 54 53 51 50 50
40 39 39 40 40 40 40 41 43 45 47 47 49 52 54 55 58 59 58 58 58 58 56 54 54 53 51 50 50 48 47 47 46 45 45 47 47 45 46 47 45 43 42 41 42 44 46 45 42 41 40 39 38 39 43 46 45 46 48 49 49 50 50 50 50 52 52 51 53 54 54 53 54 55 56 55 55 55 54 55 55 55 54 52 50 50 50 50
35 35 35 36 36 36 35 35 37 40 41 42 44 46 48 51 55 57 58 60 59 57 57 56 55 52 51 51 51 50 49 48 48 48 48 49 49 50 50 48 45 44 42 41 42 45 47 47 46 45 43 42 42 43 44 44 43 46 48 47 48 49 50 50 50 51 50 50 52 53 53 54 54 55 55 54 54 53 53 53 53 53 52 51 50 50 50 51
34 33 34 33 33 33 33 32 33 36 37 38 39 42 43 46 49 53 56 59 59 57 57 56 54 52 51 52 52 52 51 51 52 50 50 52 52 52 51 47 44 43 42 42 42 44 46 47 48 49 47 46 47 46 44 43 44 46 46 46 48 49 49 50 51 51 51 50 51 51 52 54 54 53 53 54 53 52 53 53 53 53 52 50 51 50 51 52
32 32 32 31 30 29 29 29 31 32 33 34 36 38 40 41 44 48 52 55 56 57 57 57 56 54 53 52 53 53 53 54 54 53 54 55 53 53 52 48 45 44 43 43 42 42 44 46 49 51 49 49 50 48 46 47 47 47 45 46 47 47 48 49 50 51 50 49 51 51 49 52 54 53 54 56 56 54 54 54 55 56 54 53 54 53 53 53
29 29 29 28 27 26 25 25 27 28 30 31 32 34 36 37 40 44 47 50 52 54 56 58 58 57 55 54 54 54 55 56 56 55 55 54 53 54 52 48 46 45 44 44 43 43 43 45 48 50 50 51 51 50 51 51 50 49 48 48 49 48 49 49 48 49 49 50 51 50 49 50 51 51 53 56 57 57 56 56 57 57 56 56 57 56 56 56
26 26 26 26 24 23 23 22 23 23 25 27 28 30 32 35 37 40 43 45 47 49 54 58 59 59 57 57 56 55 55 56 55 55 55 54 54 55 52 49 48 47 46 45 45 44 44 44 46 48 50 51 52 53 54 53 52 52 52 51 51 51 51 50 49 48 49 49 48 46 47 50 50 51 53 55 56 57 57 57 57 57 56 56 57 57 57 57
24 24 23 23 22 21 20 19 19 19 21 23 25 26 29 31 34 36 39 41 43 46 51 55 58 60 59 58 56 55 55 56 56 56 56 56 56 55 53 50 51 50 49 47 46 46 45 45 46 47 49 50 52 54 56 55 54 54 54 54 53 54 53 53 52 50 49 49 48 47 48 49 50 53 55 55 55 56 56 56 56 56 56 55 56 57 56 56
22 22 20 20 19 18 17 16 16 16 17 19 21 23 25 28 30 33 36 38 41 44 47 52 56 59 60 59 57 57 57 57 57 58 58 57 57 56 54 53 54 53 51 49 48 48 46 46 46 47 48 49 51 53 55 56 56 55 56 57 57 57 56 55 55 55 53 52 52 52 52 51 51 54 56 57 57 56 56 56 55 55 55 55 56 56 55 55
20 20 18 17 17 16 15 14 13 13 14 15 17 19 22 24 27 30 33 36 39 42 45 48 52 56 59 59 59 59 58 58 58 58 58 58 57 56 56 56 56 55 52 51 50 48 47 47 47 46 47 49 51 53 53 55 55 55 56 58 59 59 59 58 58 58 57 57 56 56 55 55 55 57 58 59 59 58 59 59 58 58 57 56 56 56 55 55
Wind_Direction
259 260 260 261 261 262 262 263 263 263 264 264 264 265 265 265 265 265 265 265 265 264 264 264 264 263 263 262 261 260 260 259 258 258 257 256 255 254 253 252 251 250 250 249 249 249 249 249 249 249 249 249 249 249 249 249 249 249 249 250 250 251 251 251 251 252 253 253 253 253 254 254 255 256 256 257 257 258 258 259 260 260 261 262 263 263 264 265
260 261 261 262 262 263 263 264 264 264 265 265 266 266 266 266 266 266 266 266 266 265 265 265 265 264 264 263 262 261 260 259 259 258 257 256 255 255 254 253 251 250 250 249 249 248 248 248 249 249 249 249 249 249 249 250 250 250 250 250 250 250 251 251 252 253 253 254 253 253 254 254 255 256 256 257 258 258 259 258 259 260 260 261 262 263 264 265
261 262 262 263 263 264 264 265 265 266 266 266 267 267 267 267 267 267 267 266 266 266 266 265 265 265 264 264 263 262 261 260 259 258 257 256 255 254 254 253 252 251 250 249 249 249 249 248 248 248 248 249 249 249 249 250 250 250 250 250 250 250 251 252 252 253 253 254 254 254 254 255 255 256 257 257 258 259 259 259 259 259 260 261 262 263 264 264
262 262 263 263 264 264 265 266 266 267 267 267 267 267 267 267 267 267 267 267 267 266 266 266 266 265 265 264 263 262 261 260 259 258 257 256 255 254 253 252 251 251 250 249 249 249 249 248 248 248 248 248 248 249 249 249 249 249 250 250 251 251 252 252 252 253 254 254 254 254 255 255 256 256 257 258 258 259 260 260 260 260 260 261 261 262 263 263
263 263 264 264 265 265 266 266 267 267 268 268 268 268 268 267 267 267 267 267 267 267 266 266 266 265 265 264 263 262 261 260 258 257 256 255 254 253 252 252 251 250 249 249 249 248 248 248 248 248 248 248 248 248 248 249 249 250 250 250 251 251 252 252 253 253 254 254 255 255 255 256 256 256 257 258 259 259 260 261 261 261 261 262 262 262 263 263
263 264 264 265 265 266 266 267 267 268 268 268 268 268 268 268 268 268 268 268 267 267 267 267 266 265 264 263 262 261 260 259 258 257 255 254 253 252 252 251 250 250 249 248 248 248 247 247 248 248 247 247 247 248 248 248 249 249 249 250 251 251 251 252 252 253 253 254 255 255 256 256 256 257 257 258 259 259 260 261 261 262 262 261 261 262 263 264
264 264 265 266 266 267 267 268 268 268 268 269 269 269 269 269 269 269 269 268 268 268 267 266 265 264 264 263 262 261 260 259 257 256 255 254 253 252 251 250 250 249 248 248 247 247 247 247 247 247 247 247 247 247 247 248 248 248 249 250 250 250 251 251 252 252 253 253 254 255 255 256 256 257 257 258 259 260 261 261 261 261 261 261 261 263 264 265
264 265 266 266 267 268 268 268 269 269 269 270 270 270 270 270 270 270 269 269 268 267 266 265 264 263 263 262 261 261 260 259 257 256 255 254 252 251 250 249 249 248 247 247 247 246 246 246 246 246 246 246 246 246 247 247 247 247 248 248 249 250 250 250 251 251 252 252 253 254 255 255 256 257 257 258 259 260 261 261 262 261 261 262 263 264 265 266
265 266 267 268 268 269 269 270 270 270 271 271 271 271 271 271 270 270 269 268 267 266 265 264 263 262 262 262 261 261 260 259 257 256 255 254 252 251 249 248 248 247 246 246 246 246 246 245 246 245 245 246 245 245 245 245 246 246 247 248 248 249 249 249 249 250 251 251 252 253 254 255 256 256 257 258 259 260 261 262 263 262 262 263 263 264 266 266
266 267 268 269 270 271 271 271 272 272 272 272 271 271 271 270 270 269 268 267 266 265 264 263 262 262 262 262 262 261 260 259 258 256 255 253 252 250 249 247 246 246 245 245 245 245 245 245 245 245 245 244 244 244 244 244 245 245 246 247 247 247 248 248 248 249 250 250 251 252 253 254 255 256 256 257 258 259 260 261 262 262 263 263 264 265 266 267
267 268 269 270 271 272 272 272 272 272 272 272 271 271 270 269 268 268 267 266 265 264 263 263 262 262 262 262 262 262 260 259 258 256 254 253 251 249 247 246 245 245 244 244 244 244 244 244 244 244 243 243 243 243 243 243 244 245 245 246 246 247 247 247 248 248 249 250 250 251 252 254 255 255 256 256 258 258 259 260 261 262 263 264 265 265 266 267
268 269 270 271 272 272 272 272 272 272 272 271 271 270 269 268 267 266 265 265 264 263 263 262 262 262 263 263 263 261 260 259 258 256 254 253 251 249 247 245 244 244 243 242 242 242 242 242 243 242 243 243 243 242 242 243 244 244 245 245 245 246 247 247 248 248 249 249 250 251 252 253 254 255 255 256 257 258 258 260 261 262 263 264 264 265 266 267
268 269 270 271 271 271 271 271 271 271 271 271 270 268 267 266 265 265 264 264 264 263 263 262 262 263 263 263 262 261 260 259 258 257 255 253 250 248 246 244 243 242 242 241 241 241 241 240 241 242 242 242 242 242 243 243 244 243 244 245 245 247 247 247 247 248 249 250 250 251 251 252 253 254 255 256 257 258 258 259 260 261 262 263 264 265 266 267
268 269 270 270 270 270 270 270 270 270 270 269 268 267 265 264 264 264 264 264 264 263 263 263 263 263 263 263 262 261 259 259 258 257 255 252 250 248 246 244 243 242 241 240 240 239 239 239 240 240 240 241 242 242 242 243 243 244 245 246 246 247 247 247 247 248 249 249 249 250 251 252 253 254 254 255 257 258 258 259 260 260 261 262 263 265 266 267
268 268 268 268 269 269 269 270 270 269 269 268 266 265 264 263 263 263 263 264 264 264 264 263 263 264 264 263 262 261 259 259 258 256 254 252 250 248 245 244 242 241 240 239 239 239 238 238 239 239 240 240 241 240 241 242 243 244 245 246 246 246 247 247 247 248 248 248 249 250 251 252 252 252 254 255 256 258 259 259 260 260 260 262 263 264 265 267
267 267 267 267 268 269 269 269 269 269 268 266 264 263 263 263 263 263 264 264 264 264 264 264 264 264 264 263 262 261 260 259 258 256 254 252 249 247 245 243 242 240 239 238 238 238 238 237 238 238 239 240 240 240 241 242 243 244 245 246 246 246 247 247 246 247 248 248 250 250 251 251 251 251 253 255 255 256 258 259 260 260 261 263 264 265 265 266
267 267 267 267 268 268 268 268 268 267 266 264 263 262 262 263 263 264 264 264 265 265 265 265 265 265 265 264 262 261 261 260 259 256 253 251 249 247 245 243 241 240 238 237 237 237 237 237 237 237 238 239 239 240 240 241 243 244 244 245 245 246 247 247 246 247 249 249 250 250 250 251 252 252 251 252 254 255 257 258 261 262 262 263 264 264 265 266
266 266 267 267 268 267 267 267 266 266 265 263 262 261 262 262 263 264 265 265 265 265 265 265 265 266 266 264 262 262 262 261 259 256 253 251 249 246 244 242 241 239 238 237 236 236 236 236 237 237 237 238 238 239 240 240 241 242 244 245 246 246 248 249 246 247 249 249 250 250 251 252 252 251 250 252 254 255 257 259 261 262 262 262 263 264 265 267
264 265 266 266 267 266 266 266 265 264 263 262 261 262 262 262 263 264 265 265 265 265 265 266 266 266 267 265 263 263 262 260 258 255 253 250 248 246 244 242 241 239 238 237 236 236 236 236 236 236 236 237 237 238 238 239 241 243 244 245 246 246 247 249 247 247 249 249 249 250 250 252 252 251 251 253 254 256 258 259 260 262 262 262 263 264 266 267
262 263 264 265 265 265 264 264 263 262 262 261 261 262 262 262 263 264 265 265 265 265 265 266 267 267 267 266 263 262 262 261 258 255 252 250 247 245 243 242 240 239 238 237 236 235 235 235 235 235 235 236 237 238 238 239 241 242 243 243 244 245 246 248 246 245 248 249 248 250 251 252 253 252 252 253 255 257 258 259 260 262 262 263 264 265 266 268
260 262 263 263 264 263 263 262 261 261 261 261 262 262 263 263 263 264 265 265 265 265 265 266 267 267 267 266 263 261 261 260 258 255 253 250 247 245 243 241 240 239 237 237 236 235 235 235 235 235 235 236 236 237 238 238 239 239 241 242 243 244 245 246 247 245 248 249 248 249 251 253 254 254 253 254 256 257 258 259 260 261 262 263 264 265 266 268
259 260 261 261 262 261 261 261 260 260 260 261 262 263 263 263 263 264 265 264 264 265 265 265 266 267 267 265 262 261 261 261 259 256 253 251 248 246 244 242 240 239 238 236 236 235 235 234 235 235 235 236 236 237 237 237 238 239 240 242 242 243 245 246 247 245 246 248 248 249 251 253 255 255 255 255 256 257 258 259 260 261 263 264 265 265 266 268
257 258 258 259 259 259 260 260 260 260 261 262 263 264 264 263 263 264 264 264 263 264 265 265 266 267 266 264 262 261 261 261 259 256 254 251 248 246 244 242 240 239 238 236 235 235 234 234 234 234 234 235 236 236 236 236 237 238 239 241 242 243 244 245 245 244 246 249 250 250 252 253 254 256 256 256 256 257 258 259 260 262 263 264 265 265 266 268
255 256 257 257 258 258 259 259 260 260 261 262 263 264 264 263 263 263 264 264 263 263 265 265 265 266 266 264 262 261 261 261 258 255 253 250 248 246 244 242 241 239 238 236 235 234 234 233 234 234 234 234 235 235 235 235 236 238 239 240 241 242 244 245 245 246 248 249 250 250 251 252 254 256 256 256 257 257 258 259 260 262 263 264 265 266 267 269
254 255 256 256 257 257 258 259 259 260 260 262 263 263 264 264 263 263 264 263 262 262 264 265 264 264 265 264 261 260 260 259 257 255 252 250 248 246 244 242 240 238 238 236 235 235 234 233 233 233 233 234 234 235 235 236 237 238 239 240 241 242 244 245 246 247 247 249 250 250 250 252 254 255 256 256 257 258 259 260 260 262 263 264 265 265 267 269
254 255 255 256 256 256 257 258 258 259 260 261 262 263 264 264 263 263 263 264 263 261 262 264 264 263 264 264 262 260 259 259 257 255 252 250 247 246 243 241 239 238 237 236 236 235 234 233 233 233 234 234 235 235 236 236 237 238 239 240 241 242 244 245 245 246 248 248 250 250 250 252 253 255 256 257 258 258 258 259 259 261 262 264 265 265 267 270
253 254 255 255 256 255 256 257 258 258 259 260 261 262 264 264 263 263 263 264 264 262 261 262 263 263 262 263 262 259 258 258 256 253 251 249 247 245 243 241 239 237 237 235 235 235 233 232 233 233 234 235 235 235 236 237 237 238 239 240 241 242 243 244 244 245 247 248 249 250 250 251 253 255 256 257 258 258 258 259 261 263 264 266 267 267 267 268
254 254 255 255 255 255 254 256 258 258 258 260 261 263 264 264 263 263 263 264 265 263 260 259 260 262 262 263 262 260 257 256 255 253 251 248 246 244 243 242 239 237 237 236 235 234 232 233 233 234 234 235 235 236 236 237 238 238 240 241 241 241 242 243 244 244 246 247 249 251 251 252 252 253 255 255 255 257 258 260 262 264 265 266 266 267 267 269
254 254 255 255 255 254 254 255 257 258 258 259 261 262 263 263 264 264 263 264 265 262 259 258 259 261 261 262 262 259 256 255 255 254 250 247 245 243 242 241 239 237 236 235 234 233 232 233 233 233 234 234 234 235 236 237 237 238 239 240 240 241 241 242 243 243 244 245 247 249 250 251 251 252 254 255 254 257 259 259 261 261 263 263 259 263 266 268
255 254 255 255 255 255 255 256 257 258 259 259 260 261 263 263 263 263 264 264 263 260 258 257 258 259 260 260 260 258 255 255 254 252 250 247 245 243 242 241 239 237 236 235 234 232 232 231 232 232 232 233 233 233 234 235 236 237 238 239 239 240 240 240 241 242 244 245 246 248 249 250 251 251 253 255 255 255 256 258 259 259 260 258 255 258 258 256
256 256 256 256 256 256 256 257 257 258 259 259 259 259 261 262 262 264 264 262 259 258 259 258 256 257 258 259 259 258 255 253 252 251 250 248 245 243 241 241 239 237 236 235 233 232 231 231 231 232 232 232 232 232 234 235 235 236 237 238 239 240 240 240 241 242 244 245 245 247 248 249 251 250 250 254 254 253 254 256 255 253 251 247 246 245 245 248
258 258 258 257 257 257 257 257 258 258 258 258 258 258 259 260 262 264 261 258 257 257 258 257 256 257 258 258 258 257 255 252 252 252 249 247 245 243 241 239 238 237 235 234 232 232 231 231 231 232 232 232 233 233 234 235 235 236 237 237 238 240 240 240 241 242 244 245 245 246 246 248 250 249 249 252 254 253 252 252 251 250 247 243 242 238 235 239
259 259 259 259 258 258 258 258 258 258 258 258 257 258 258 259 261 261 258 256 256 256 255 257 258 258 258 258 258 256 254 251 251 251 249 247 246 243 241 239 238 238 237 235 234 234 233 233 233 234 234 234 234 234 234 234 235 235 236 237 238 240 240 239 240 242 243 244 244 244 245 246 248 248 246 247 250 250 250 250 251 251 248 245 244 238 234 238
260 260 260 260 260 259 258 258 258 258 258 257 257 257 257 258 258 257 255 255 254 254 255 256 256 257 257 257 256 254 251 249 249 249 248 247 246 243 241 239 237 237 236 235 235 235 234 234 234 234 234 234 234 234 234 234 234 234 235 236 237 239 240 239 239 241 242 242 242 243 244 245 248 249 245 243 245 248 252 253 252 252 247 239 236 234 232 235
261 261 261 261 260 260 259 258 258 258 258 257 257 257 257 257 255 253 253 254 254 253 254 255 255 256 256 255 254 252 249 246 247 249 247 246 245 244 241 238 236 236 235 234 234 233 234 234 233 234 234 234 235 234 234 234 234 235 234 235 235 238 240 239 239 241 242 244 244 245 246 247 249 250 248 247 246 245 246 245 244 246 242 234 234 236 237 235
262 262 261 261 261 260 260 259 258 258 258 257 257 257 256 254 253 251 252 254 255 253 253 253 253 253 254 254 252 251 249 245 244 247 247 246 245 243 241 237 236 237 235 234 234 234 234 233 233 234 234 234 235 235 235 235 235 235 235 235 236 237 239 240 240 240 243 245 245 246 248 248 249 250 250 249 247 242 239 240 241 243 242 240 239 239 240 239
264 263 263 262 261 261 260 259 259 259 258 258 257 257 255 253 252 251 252 254 254 252 250 251 252 252 252 252 252 250 247 244 242 244 244 244 243 242 242 238 236 237 235 234 235 234 234 234 234 235 235 235 236 237 236 236 236 236 236 237 237 238 239 240 241 242 243 244 244 245 246 246 246 247 246 243 242 241 240 242 244 246 247 247 244 239 237 237
264 264 263 263 262 262 261 260 260 259 259 259 257 256 254 253 252 252 251 252 252 251 250 250 250 250 250 251 250 247 244 240 239 241 241 240 240 241 241 239 236 236 235 234 234 234 235 235 235 235 235 235 235 236 236 237 237 237 237 238 238 240 240 241 241 242 243 244 245 244 245 245 245 246 245 244 245 245 244 244 244 243 246 248 246 243 240 236
266 265 264 264 263 263 262 261 260 260 259 258 257 255 254 252 252 252 251 251 252 251 250 248 247 247 248 249 247 244 242 239 235 237 239 238 238 238 239 238 237 236 235 234 234 234 234 235 235 235 235 235 235 236 236 237 237 236 237 238 238 239 241 241 242 243 244 245 245 245 245 246 247 248 248 249 251 250 247 247 244 241 243 247 247 246 245 242
268 267 266 265 265 264 263 262 261 260 259 258 257 255 253 252 251 252 251 250 250 251 249 248 247 246 246 246 244 241 239 238 234 233 235 235 235 237 237 237 236 236 235 234 234 233 232 234 235 236 236 236 236 235 234 236 236 236 237 238 238 239 240 241 241 243 244 245 246 246 245 245 246 247 248 249 251 251 248 247 246 244 245 246 246 247 249 248
271 270 268 267 266 265 264 263 262 261 259 258 256 255 253 252 251 250 249 248 248 249 248 247 244 242 242 243 243 238 235 235 233 232 233 232 232 234 235 233 233 234 234 233 233 232 232 232 233 234 235 236 236 234 235 236 236 237 237 237 238 239 240 240 239 240 242 244 245 245 245 245 245 244 244 244 246 248 248 248 248 248 247 247 248 251 253 251
273 272 271 269 268 266 265 263 262 260 259 257 256 254 252 250 248 248 247 246 246 246 246 244 242 240 240 239 239 237 234 233 232 231 233 231 229 231 233 231 230 230 232 232 231 231 232 232 232 232 232 235 235 234 235 237 236 236 237 237 238 238 239 240 239 240 240 241 243 244 245 245 245 245 243 242 243 244 246 247 248 249 250 250 252 254 255 253
277 275 274 272 270 268 266 265 263 260 258 257 255 253 251 248 247 246 245 244 243 243 243 242 240 238 236 236 237 236 233 232 230 230 232 231 228 228 231 232 229 227 229 230 230 231 232 232 231 230 230 234 235 233 234 236 235 235 236 237 237 238 239 240 240 240 241 241 242 243 244 244 244 245 245 245 245 244 244 246 247 250 251 252 253 253 253 254
280 279 278 276 274 271 269 267 265 262 259 257 253 251 249 247 245 245 244 243 241 240 240 239 237 236 234 233 234 233 231 230 229 228 230 232 231 229 230 231 231 229 228 229 229 229 231 231 231 230 230 233 234 231 232 234 233 233 235 236 237 238 239 239 240 241 242 242 243 244 244 243 243 244 245 246 247 247 246 248 249 250 251 251 251 250 251 252
286 285 283 281 279 276 273 269 266 264 260 257 253 250 247 245 244 243 241 240 239 238 238 237 236 234 232 231 230 229 228 227 226 226 227 230 232 231 231 231 232 233 231 230 229 230 231 231 231 230 228 230 231 230 231 233 232 232 234 235 236 236 237 237 239 240 241 241 243 244 245 244 244 246 247 246 247 248 248 248 249 248 248 248 247 247 248 249
292 290 288 286 283 281 278 273 269 265 261 257 253 250 246 243 242 241 239 239 238 236 236 236 236 234 231 230 229 227 227 226 225 224 225 228 230 232 233 231 232 234 233 231 231 231 232 233 233 232 229 229 231 231 231 233 233 233 233 234 235 236 236 237 238 239 239 240 242 244 245 246 245 245 247 246 246 247 247 247 248 247 245 244 244 244 245 246
295 293 291 289 287 282 279 274 269 266 262 258 252 249 246 242 239 238 237 237 236 234 233 233 233 232 230 229 228 226 225 225 225 223 224 226 229 232 233 232 231 232 233 232 232 232 233 233 235 236 234 232 233 232 231 232 233 233 233 234 236 237 237 238 238 239 240 240 240 241 244 247 247 246 247 248 247 246 246 247 247 247 247 247 247 246 247 248
297 297 295 294 292 287 282 275 269 265 261 257 252 247 244 240 237 236 235 235 233 231 230 229 229 229 228 227 226 226 225 225 225 225 225 227 229 231 233 232 232 233 233 233 233 233 234 234 235 237 237 236 236 236 234 234 234 233 233 234 235 236 237 238 239 240 240 239 240 241 242 245 248 248 248 250 250 248 247 247 248 249 250 250 251 251 251 252
304 303 302 301 299 295 289 282 274 268 262 257 251 245 241 237 234 232 232 232 230 228 227 227 227 227 226 226 225 225 225 225 226 226 227 227 229 231 232 232 233 233 234 234 233 233 233 235 236 237 237 238 238 238 238 238 237 236 236 236 236 237 238 238 239 239 240 239 239 240 239 240 243 246 247 249 251 251 250 249 249 250 251 251 252 252 252 253
311 309 307 306 304 300 295 288 279 270 262 256 250 245 240 236 233 230 228 228 227 225 225 225 225 225 225 225 225 224 224 225 225 225 226 226 227 230 230 231 232 232 232 233 234 234 234 234 236 237 238 238 238 239 241 240 239 239 239 239 239 239 240 240 240 240 241 241 239 238 238 238 240 243 245 246 248 250 251 251 250 250 250 251 252 252 252 253
316 315 315 313 311 308 303 296 286 274 264 256 250 244 239 234 231 228 225 224 224 223 222 222 223 223 224 224 224 223 223 224 225 225 226 227 227 229 229 229 231 231 231 232 234 235 235 235 237 238 239 240 240 240 242 243 242 241 241 241 241 240 241 241 242 242 242 242 242 242 241 240 241 243 246 247 248 249 251 252 253 253 252 252 252 253 253 254
324 324 323 320 318 316 313 306 295 281 268 259 251 243 237 232 228 225 223 222 221 220 220 221 221 222 223 223 223 223 223 224 225 226 226 227 228 228 229 230 231 231 231 231 233 235 237 238 239 239 240 241 241 242 242 244 245 244 244 244 243 242 242 242 243 244 244 244 244 245 245 244 243 245 247 249 251 251 252 252 253 254 255 254 255 255 256 257